Regional Weather Roundup
Issued by NWS

Home | Current Version | Previous Version | Graphics & Text | Print | Product List | Glossary On
Versions: 1 2 3 4 5 6 7 8 9 10 11 12 13 14 15 16 17 18 19 20 21 22 23 24 25 26 27 28 29 30 31 32 33 34 35 36 37 38 39 40 41 42 43 44 45 46 47 48 49 50
513
ASUS43 KDTX 191210
RWRMI
MICHIGAN HOURLY REGIONAL WEATHER ROUNDUP
NATIONAL WEATHER SERVICE DETROIT/PONTIAC MI
700 AM EST SUN NOV 19 2017

NOTE: "FAIR" INDICATES FEW OR NO CLOUDS BELOW 12,000 FEET WITH NO
SIGNIFICANT WEATHER AND/OR OBSTRUCTION TO VISIBILITY.

MIZ047>049-052>055-059>063-066>070-074>076-081>083-191300-
SOUTHEAST LOWER MICHIGAN

CITY           SKY/WX    TMP DP  RH WIND       PRES   REMARKS
ADRIAN         CLOUDY    35  26  69 N8        29.81R WCI  29
6HR MIN TEMP:  35; 6HR MAX TEMP:  38;

ALMA           FLURRIES  33  31  93 W8G16     29.78R WCI  26
6HR MIN TEMP:  33; 6HR MAX TEMP:  37;

ANN ARBOR      CLOUDY    34  28  79 W8        29.78R WCI  27
BAD AXE        CLOUDY    34  25  70 NW16G24   29.70R WCI  23
6HR MIN TEMP:  33; 6HR MAX TEMP:  36;

CARO           MOCLDY    33  28  82 W12       29.73R WCI  25
DETROIT CITY   CLOUDY    46  24  42 NW13G25   29.75R
6HR MIN TEMP:  43; 6HR MAX TEMP:  50;

DETROIT        CLOUDY    36  27  69 NW13      29.77R WCI  27
6HR MIN TEMP:  36; 6HR MAX TEMP:  39; 6HR PCP: TRACE;

FLINT          CLOUDY    34  28  79 W12       29.76R WCI  25
6HR MIN TEMP:  34; 6HR MAX TEMP:  37; 6HR PCP: TRACE;

GROSSE ILE     CLOUDY    37  27  69 NW13G22   29.77R WCI  28
6HR MIN TEMP:  37; 6HR MAX TEMP:  39;

HILLSDALE      MIX PCPN  32  30  93 W8        29.80R WCI  25
HOWELL         MOCLDY    33  30  88 W7        29.77R WCI  27
6HR MIN TEMP:  33; 6HR MAX TEMP:  37;


CITY           SKY/WX    TMP DP  RH WIND       PRES   REMARKS
JACKSON        CLOUDY    34  27  75 W8        29.80R WCI  27
6HR MIN TEMP:  34; 6HR MAX TEMP:  38; 6HR PCP: TRACE;

LAMBERTVILLE   CLOUDY    38  28  67 NW9G17    29.81R WCI  31
6HR MIN TEMP:  38; 6HR MAX TEMP:  41;

LANSING        LGT SNOW  33  31  92 W12       29.80R FOG     WCI  24
6HR MIN TEMP:  33; 6HR MAX TEMP:  36; 6HR PCP: TRACE;

LAPEER         CLOUDY    34  28  76 W10G16    29.74R WCI  26
6HR MIN TEMP:  34; 6HR MAX TEMP:  37;

MASON          FLURRIES  35  30  80 W9        29.79R WCI  28
MONROE         CLOUDY    37  29  73 W13G23    29.79R WCI  29
6HR MIN TEMP:  37; 6HR MAX TEMP:  40;

MT. CLEMENS    CLOUDY    36  30  80 W12G23    29.72R WCI  27
PONTIAC        CLOUDY    34  26  72 W14       29.74R WCI  25
6HR MIN TEMP:  34; 6HR MAX TEMP:  37; 6HR PCP: TRACE;

PORT HOPE        N/A     36  26  67 NW23G31   29.67R WCI  24
6HR MIN TEMP:  35; 6HR MAX TEMP:  39; 6HR PCP:  0.01;

PORT HURON     CLOUDY    32  30  93 W5        29.71R WCI  27
TRI CITIES     CLOUDY    34  29  82 W10       29.76R WCI  26
6HR MIN TEMP:  34; 6HR MAX TEMP:  37; 6HR PCP: TRACE;

MIDLAND        CLOUDY    35  29  78 W9        29.75R WCI  27
6HR MIN TEMP:  33; 6HR MAX TEMP:  37;

TROY           CLOUDY    38  26  64 W20G25    29.76R WCI  27
SAGINAW HB     CLOUDY    34  28  80 W9        29.75R WCI  26
$$
MIZ043>046-050>051-056>058-064>065-071>073-077>080-191300-
SOUTHWEST LOWER MICHIGAN

CITY           SKY/WX    TMP DP  RH WIND       PRES   REMARKS
BATTLE CREEK   CLOUDY    34  31  88 W7        29.82R WCI  28
6HR MIN TEMP:  34; 6HR MAX TEMP:  37; 6HR PCP: TRACE;

BENTON HARBOR  CLOUDY    37  24  59 W15G26    29.89R WCI  28
6HR MIN TEMP:  36; 6HR MAX TEMP:  41;

BIG RAPIDS     LGT SNOW  31  28  90 NW6       29.78R WCI  25
6HR MIN TEMP:  30; 6HR MAX TEMP:  33;

COLDWATER      CLOUDY    34  33  96 W5        29.83R WCI  30
6HR MIN TEMP:  34; 6HR MAX TEMP:  38;

FREMONT        CLOUDY    32  26  77 NW13      29.82R WCI  23
HOLLAND        CLOUDY    36  25  64 NW14G24   29.85R WCI  27
6HR MIN TEMP:  36; 6HR MAX TEMP:  39; 6HR PCP: TRACE;

GRAND RAPIDS   CLOUDY    35  29  78 NW13      29.82R WCI  26
6HR MIN TEMP:  34; 6HR MAX TEMP:  37; 6HR PCP: TRACE;

IONIA          CLOUDY    34  31  90 W10       29.80R WCI  26
6HR MIN TEMP:  33; 6HR MAX TEMP:  37;

KALAMAZOO      CLOUDY    36  27  69 W9        29.84R WCI  29
6HR MIN TEMP:  34; 6HR MAX TEMP:  37; 6HR PCP:  0.01;

LUDINGTON      CLOUDY    32  23  69 NW12G20   29.84R WCI  23
6HR MIN TEMP:  32; 6HR MAX TEMP:  35; 6HR PCP:  0.01;

MARSHALL       CLOUDY    33  32  96 W5        29.81R WCI  28
6HR MIN TEMP:  33; 6HR MAX TEMP:  37;

MOUNT PLEASANT CLOUDY    34  28  77 W6        29.76R WCI  29
6HR MIN TEMP:  34; 6HR MAX TEMP:  37;

MUSKEGON       FLURRIES  35  23  61 NW13      29.85R WCI  26
6HR MIN TEMP:  34; 6HR MAX TEMP:  37; 6HR PCP:  0.01;

SOUTH HAVEN    CLOUDY    37  24  59 NW13G21   29.87R WCI  28
$$
MIZ016>042-191300-
NORTHERN LOWER MICHIGAN

CITY           SKY/WX    TMP DP  RH WIND       PRES   REMARKS
ALPENA         CLOUDY    31  26  82 W12G20    29.69R WCI  22
6HR MIN TEMP:  31; 6HR MAX TEMP:  36; 6HR PCP: TRACE;

BEAVER ISLAND  CLOUDY    31  21  66 NW16G24   29.77R WCI  20
6HR MIN TEMP:  31; 6HR MAX TEMP:  33;

BELLAIRE       LGT SNOW  30  29  96 NW7G17    29.77R WCI  23
6HR MIN TEMP:  30; 6HR MAX TEMP:  35;

CADILLAC       CLOUDY    29  24  79 NW9G18    29.74S WCI  21
CHARLEVOIX     CLOUDY    32  19  58 NW16G28   29.79R WCI  21
6HR MIN TEMP:  32; 6HR MAX TEMP:  35;

FRANKFORT      CLOUDY    32  22  67 NW9G22    29.83R WCI  24
GAYLORD        FLURRIES  27  21  78 VRB7      29.70S WCI  19
6HR MIN TEMP:  27; 6HR MAX TEMP:  32; 6HR PCP:  0.05;

GRAYLING       FLURRIES  29  25  82 NW9       29.73R WCI  21
6HR MIN TEMP:  29; 6HR MAX TEMP:  33;

HARBOR SPRINGS FLURRIES  30  22  73 NW13      29.74R WCI  20
MANISTEE       FLURRIES  31  23  72 NW15G23   29.83R WCI  20
OSCODA         CLOUDY    31  27  83 NW8       29.69R WCI  24
6HR MIN TEMP:  31; 6HR MAX TEMP:  35;

PELLSTON       LGT SNOW  29  24  82 NW13      29.75R WCI  19
6HR MIN TEMP:  29; 6HR MAX TEMP:  34; 6HR PCP: TRACE;

ROGERS CITY    CLOUDY    31  24  77 NW17G29   29.71R WCI  19
TRAVERSE CITY  FLURRIES  32  23  69 NW15      29.78R WCI  22
6HR MIN TEMP:  32; 6HR MAX TEMP:  35; 6HR PCP:  0.01;

$$
MIZ007>008-015-191300-
EASTERN UPPER MICHIGAN

CITY           SKY/WX    TMP DP  RH WIND       PRES   REMARKS
KINROSS        FLURRIES  26  18  71 N16G26    29.71R WCI  14
6HR MIN TEMP:  26; 6HR MAX TEMP:  32;

MACKINAC ISLAN CLOUDY    29  20  70 NW14G24   29.73R WCI  18
6HR MIN TEMP:  29; 6HR MAX TEMP:  34;

NEWBERRY       LGT SNOW  25  24  93 NW8       29.74R WCI  16
6HR MIN TEMP:  25; 6HR MAX TEMP:  30;

S. S. MARIE    FLURRIES  25  17  72 N13G21    29.71R WCI  14
6HR MIN TEMP:  25; 6HR MAX TEMP:  33; 6HR PCP: TRACE;

MUNISING         N/A     27  25  92 N16G33    29.81R WCI  15
6HR MIN TEMP:  27; 6HR MAX TEMP:  33; 6HR PCP:  0.01;

$$
MIZ004>006-011>014-085-191300-
CENTRAL UPPER MICHIGAN

CITY           SKY/WX    TMP DP  RH WIND       PRES   REMARKS
MANISTIQUE     FLURRIES  25  20  82 W14       29.79R WCI  13
6HR MIN TEMP:  25; 6HR MAX TEMP:  30;

ESCANABA       LGT SNOW  25  21  85 NW12      29.85R FOG     WCI  14
6HR MIN TEMP:  25; 6HR MAX TEMP:  30; 6HR PCP: TRACE;

MENOMINEE      CLOUDY    26  14  60 NW12G18   29.89R WCI  16
6HR MIN TEMP:  26; 6HR MAX TEMP:  31; 6HR PCP: TRACE;

SAWYER-GWINN   FLURRIES  21  16  79 NW14      29.81R WCI   8
$$
MIZ001>003-009>011-084-191300-
WESTERN UPPER MICHIGAN

CITY           SKY/WX    TMP DP  RH WIND       PRES   REMARKS
IRON MOUNTAIN  CLOUDY    22   9  57 NW16G25   29.84R WCI   8
6HR MIN TEMP:  22; 6HR MAX TEMP:  26; 6HR PCP: TRACE;

HOUGHTON       FLURRIES  21  11  65 NW14      29.83S WCI   8
6HR MIN TEMP:  21; 6HR MAX TEMP:  23; 6HR PCP: TRACE;

COPPER HARBOR    N/A     25  17  72 N20       29.84R WCI  11
6HR MIN TEMP:  24; 6HR MAX TEMP:  28; 6HR PCP:  0.01;

IRONWOOD       FLURRIES N/A N/A N/A W13       29.91S
                                      6HR PCP: TRACE;

$$

ABBREVIATIONS USED IN REMARKS
   TC - TEMPERATURE IN CELSIUS
  WCI - WIND CHILL INDEX
   HX - HEAT INDEX
  VSB - VISIBILITY





USA.gov is the U.S. government's official web portal to all federal, state and local government web resources and services.